| time (UTC) | temp F | wind direction | speed knots | gust knots | rain 1hr in | rain 24hr in | rain mn in | humidity % | barometer mb |
| 20260902034021 | 78 | 0.0 | 0.0 | 0.00 | 0.00 | 0.00 | 84 | 1016.0 | |
| 20260902033030 | 78 | 0.0 | 0.0 | 0.00 | 0.00 | 0.00 | 84 | 1016.0 | |
| 20260902032015 | 78 | 0.0 | 0.0 | 0.00 | 0.00 | 0.00 | 85 | 1016.1 | |
| 20260902031016 | 79 | 0.0 | 0.0 | 0.00 | 0.00 | 0.00 | 84 | 1016.0 | |
| 20260902030020 | 79 | 0.0 | 0.0 | 0.00 | 0.00 | 0.00 | 83 | 1016.0 | |
| 20260902025021 | 79 | 0.0 | 0.0 | 0.00 | 0.00 | 0.00 | 83 | 1015.9 | |
| 20260902024021 | 79 | 0.0 | 0.0 | 0.00 | 0.00 | 0.00 | 82 | 1015.8 | |
| 20260902023020 | 80 | 0.0 | 0.0 | 0.00 | 0.00 | 0.00 | 82 | 1015.8 | |
| 20260902022021 | 80 | 0.0 | 0.0 | 0.00 | 0.00 | 0.00 | 80 | 1015.8 | |
| 20260902021015 | 81 | 0.0 | 0.0 | 0.00 | 0.00 | 0.00 | 79 | 1015.7 | |
| 20260902020020 | 81 | 0.0 | 0.0 | 0.00 | 0.00 | 0.00 | 79 | 1015.6 | |
| 20260902015022 | 80 | 0.0 | 0.0 | 0.00 | 0.00 | 0.00 | 78 | 1015.4 | |
| 20260902014021 | 81 | 0.0 | 0.0 | 0.00 | 0.00 | 0.00 | 77 | 1015.3 | |
| 20260902013020 | 82 | 0.0 | 0.0 | 0.00 | 0.00 | 0.00 | 77 | 1015.3 | |
| 20260902012101 | 82 | 0.0 | 0.0 | 0.00 | 0.00 | 0.00 | 75 | 1015.2 | |
| 20260902011016 | 83 | 0.0 | 0.0 | 0.00 | 0.00 | 0.00 | 74 | 1015.1 | |
| 20260902010015 | 84 | 0.0 | 0.0 | 0.00 | 0.00 | 0.00 | 71 | 1015.1 | |
| 20260902005020 | 84 | 0.0 | 0.0 | 0.00 | 0.00 | 0.00 | 70 | 1015.0 | |
| 20260902004021 | 84 | 0.0 | 0.0 | 0.00 | 0.00 | 0.00 | 71 | 1015.1 | |
| 20260902003021 | 85 | 0.0 | 0.0 | 0.00 | 0.00 | 0.00 | 71 | 1015.1 | |
| 20260902002020 | 85 | 0.0 | 0.0 | 0.00 | 0.00 | 0.00 | 70 | 1015.1 | |
| 20260902001042 | 86 | 0.0 | 0.0 | 0.00 | 0.00 | 0.00 | 68 | 1015.1 | |
| 20260902000016 | 88 | 0.0 | 0.0 | 0.00 | 0.00 | 0.00 | 65 | 1015.1 | |
| 20260901235020 | 90 | 0.0 | 0.9 | 0.00 | 0.00 | 0.00 | 60 | 1015.2 | |
| 20260901234021 | 91 | 0.0 | 0.0 | 0.00 | 0.00 | 0.00 | 59 | 1015.2 | |
| 20260901233020 | 92 | 0.0 | 1.7 | 0.00 | 0.00 | 0.00 | 55 | 1015.2 | |
| 20260901232021 | 93 | 189 | 0.0 | 1.7 | 0.00 | 0.00 | 0.00 | 51 | 1015.3 |
| 20260901231101 | 94 | 189 | 0.0 | 1.7 | 0.00 | 0.00 | 0.00 | 48 | 1015.2 |
| 20260901230015 | 94 | 186 | 0.0 | 4.3 | 0.00 | 0.00 | 0.00 | 48 | 1015.3 |
| 20260901225016 | 95 | 199 | 0.0 | 5.2 | 0.00 | 0.00 | 0.00 | 47 | 1015.3 |
| 20260901224020 | 95 | 178 | 0.9 | 6.1 | 0.00 | 0.00 | 0.00 | 47 | 1015.3 |
| 20260901223021 | 95 | 189 | 0.0 | 1.7 | 0.00 | 0.00 | 0.00 | 48 | 1015.2 |
| 20260901222021 | 95 | 202 | 0.0 | 5.2 | 0.00 | 0.00 | 0.00 | 47 | 1015.2 |
| 20260901221020 | 95 | 155 | 0.0 | 7.0 | 0.00 | 0.00 | 0.00 | 47 | 1015.1 |
| 20260901220021 | 96 | 173 | 0.0 | 2.6 | 0.00 | 0.00 | 0.00 | 47 | 1015.0 |
| 20260901215015 | 96 | 172 | 0.0 | 5.2 | 0.00 | 0.00 | 0.00 | 44 | 1015.1 |
| 20260901214020 | 96 | 0.0 | 1.7 | 0.00 | 0.00 | 0.00 | 46 | 1015.1 | |
| 20260901213021 | 96 | 163 | 0.0 | 1.7 | 0.00 | 0.00 | 0.00 | 47 | 1015.1 |
| 20260901212020 | 96 | 187 | 0.0 | 4.3 | 0.00 | 0.00 | 0.00 | 46 | 1015.2 |
| 20260901211020 | 97 | 181 | 0.0 | 3.5 | 0.00 | 0.00 | 0.00 | 44 | 1015.3 |
| 20260901210020 | 96 | 180 | 0.0 | 3.5 | 0.00 | 0.00 | 0.00 | 45 | 1015.3 |
| 20260901205020 | 96 | 177 | 0.0 | 3.5 | 0.00 | 0.00 | 0.00 | 46 | 1015.4 |
| 20260901204015 | 97 | 153 | 0.0 | 2.6 | 0.00 | 0.00 | 0.00 | 46 | 1015.6 |
| 20260901203020 | 97 | 182 | 0.9 | 4.3 | 0.00 | 0.00 | 0.00 | 47 | 1015.6 |
| 20260901202020 | 96 | 199 | 0.9 | 5.2 | 0.00 | 0.00 | 0.00 | 45 | 1015.7 |
| 20260901201020 | 97 | 181 | 0.0 | 2.6 | 0.00 | 0.00 | 0.00 | 44 | 1015.8 |
| 20260901200020 | 96 | 166 | 0.9 | 5.2 | 0.00 | 0.00 | 0.00 | 45 | 1015.9 |
| 20260901195020 | 96 | 192 | 0.9 | 4.3 | 0.00 | 0.00 | 0.00 | 47 | 1015.9 |
| 20260901194016 | 95 | 194 | 0.0 | 1.7 | 0.00 | 0.00 | 0.00 | 46 | 1016.1 |
| 20260901193016 | 96 | 157 | 0.0 | 4.3 | 0.00 | 0.00 | 0.00 | 43 | 1016.2 |
| 20260901192020 | 96 | 207 | 0.9 | 4.3 | 0.00 | 0.00 | 0.00 | 46 | 1016.3 |
| 20260901191020 | 95 | 272 | 1.7 | 6.1 | 0.00 | 0.00 | 0.00 | 47 | 1016.4 |
| 20260901190020 | 97 | 207 | 0.9 | 5.2 | 0.00 | 0.00 | 0.00 | 48 | 1016.5 |
| 20260901185020 | 96 | 190 | 0.0 | 6.1 | 0.00 | 0.00 | 0.00 | 47 | 1016.6 |
| 20260901184020 | 96 | 206 | 0.9 | 5.2 | 0.00 | 0.00 | 0.00 | 47 | 1016.7 |
| 20260901183015 | 96 | 198 | 1.7 | 6.1 | 0.00 | 0.00 | 0.00 | 50 | 1016.8 |
| 20260901182020 | 95 | 207 | 1.7 | 3.5 | 0.00 | 0.00 | 0.00 | 51 | 1016.8 |
| 20260901181020 | 95 | 211 | 0.9 | 4.3 | 0.00 | 0.00 | 0.00 | 50 | 1017.0 |
| 20260901180020 | 94 | 184 | 0.0 | 5.2 | 0.00 | 0.00 | 0.00 | 52 | 1017.1 |
| 20260901175020 | 95 | 229 | 0.9 | 6.1 | 0.00 | 0.00 | 0.00 | 52 | 1017.2 |
| 20260901174020 | 94 | 270 | 2.6 | 7.8 | 0.00 | 0.00 | 0.00 | 53 | 1017.4 |
| 20260901173020 | 94 | 277 | 2.6 | 7.0 | 0.00 | 0.00 | 0.00 | 53 | 1017.5 |
| 20260901172015 | 94 | 276 | 1.7 | 7.8 | 0.00 | 0.00 | 0.00 | 51 | 1017.6 |
| 20260901171021 | 94 | 274 | 2.6 | 7.8 | 0.00 | 0.00 | 0.00 | 54 | 1017.7 |
| 20260901170020 | 94 | 260 | 2.6 | 6.1 | 0.00 | 0.00 | 0.00 | 53 | 1017.8 |
| 20260901165020 | 93 | 214 | 2.6 | 7.0 | 0.00 | 0.00 | 0.00 | 55 | 1017.9 |
| 20260901164022 | 93 | 217 | 0.9 | 6.1 | 0.00 | 0.00 | 0.00 | 55 | 1018.0 |
| 20260901163020 | 92 | 244 | 1.7 | 5.2 | 0.00 | 0.00 | 0.00 | 56 | 1018.2 |
| 20260901162015 | 92 | 222 | 1.7 | 5.2 | 0.00 | 0.00 | 0.00 | 56 | 1018.2 |
| 20260901161015 | 92 | 218 | 1.7 | 5.2 | 0.00 | 0.00 | 0.00 | 57 | 1018.3 |
| 20260901160101 | 91 | 262 | 2.6 | 7.0 | 0.00 | 0.00 | 0.00 | 61 | 1018.4 |
| 20260901155020 | 91 | 267 | 2.6 | 7.0 | 0.00 | 0.00 | 0.00 | 63 | 1018.4 |
| 20260901154021 | 90 | 224 | 0.9 | 6.1 | 0.00 | 0.00 | 0.00 | 61 | 1018.3 |
| 20260901153018 | 89 | 283 | 1.7 | 6.1 | 0.00 | 0.00 | 0.00 | 64 | 1018.3 |
| 20260901152021 | 88 | 285 | 0.9 | 5.2 | 0.00 | 0.00 | 0.00 | 63 | 1018.3 |
| 20260901151015 | 88 | 266 | 0.9 | 5.2 | 0.00 | 0.00 | 0.00 | 66 | 1018.3 |
| 20260901150021 | 87 | 247 | 0.9 | 5.2 | 0.00 | 0.00 | 0.00 | 68 | 1018.3 |
| 20260901145021 | 87 | 216 | 0.9 | 3.5 | 0.00 | 0.00 | 0.00 | 68 | 1018.4 |
| 20260901144020 | 86 | 215 | 0.9 | 3.5 | 0.00 | 0.00 | 0.00 | 68 | 1018.3 |
| 20260901143101 | 86 | 214 | 0.9 | 4.3 | 0.00 | 0.00 | 0.00 | 70 | 1018.3 |
| 20260901142020 | 85 | 223 | 0.9 | 4.3 | 0.00 | 0.00 | 0.00 | 71 | 1018.3 |
| 20260901141015 | 83 | 205 | 0.9 | 3.5 | 0.00 | 0.00 | 0.00 | 73 | 1018.3 |
| 20260901140015 | 82 | 191 | 1.7 | 6.1 | 0.00 | 0.00 | 0.00 | 73 | 1018.4 |
| 20260901135020 | 81 | 186 | 0.9 | 3.5 | 0.00 | 0.00 | 0.00 | 77 | 1018.2 |
| 20260901134020 | 80 | 184 | 0.0 | 1.7 | 0.00 | 0.00 | 0.00 | 78 | 1018.2 |
| 20260901133042 | 80 | 183 | 0.9 | 3.5 | 0.00 | 0.00 | 0.00 | 80 | 1018.3 |
| 20260901132022 | 79 | 183 | 0.0 | 1.7 | 0.00 | 0.00 | 0.00 | 81 | 1018.3 |
| 20260901131017 | 78 | 0.0 | 0.0 | 0.00 | 0.00 | 0.00 | 85 | 1018.3 | |
| 20260901130022 | 77 | 0.0 | 0.0 | 0.00 | 0.00 | 0.00 | 88 | 1018.4 | |
| 20260901125022 | 76 | 0.0 | 0.0 | 0.00 | 0.00 | 0.00 | 89 | 1018.3 | |
| 20260901124022 | 75 | 0.0 | 0.0 | 0.00 | 0.00 | 0.00 | 89 | 1018.3 | |
| 20260901123022 | 73 | 0.0 | 0.0 | 0.00 | 0.00 | 0.00 | 92 | 1018.2 | |
| 20260901122043 | 72 | 0.0 | 0.0 | 0.00 | 0.00 | 0.00 | 93 | 1018.1 | |
| 20260901121017 | 72 | 0.0 | 0.0 | 0.00 | 0.00 | 0.00 | 93 | 1018.1 | |
| 20260901120017 | 71 | 0.0 | 0.0 | 0.00 | 0.00 | 0.00 | 93 | 1017.9 | |
| 20260901115022 | 72 | 0.0 | 0.0 | 0.00 | 0.00 | 0.00 | 93 | 1017.8 | |
| 20260901114022 | 72 | 0.0 | 0.0 | 0.00 | 0.00 | 0.00 | 93 | 1017.8 | |
| 20260901113022 | 72 | 0.0 | 0.0 | 0.00 | 0.00 | 0.00 | 93 | 1017.6 | |
| 20260901112023 | 71 | 0.0 | 0.0 | 0.00 | 0.00 | 0.00 | 93 | 1017.5 | |
| 20260901111022 | 71 | 0.0 | 0.0 | 0.00 | 0.00 | 0.00 | 93 | 1017.5 | |
| 20260901110058 | 71 | 0.0 | 0.0 | 0.00 | 0.00 | 0.00 | 93 | 1017.3 | |
| 20260901105022 | 71 | 0.0 | 0.0 | 0.00 | 0.00 | 0.00 | 93 | 1017.3 | |
| 20260901104022 | 71 | 0.0 | 0.0 | 0.00 | 0.00 | 0.00 | 93 | 1017.3 | |
| 20260901103024 | 71 | 0.0 | 0.0 | 0.00 | 0.00 | 0.00 | 93 | 1017.3 | |
| 20260901102022 | 71 | 0.0 | 0.0 | 0.00 | 0.00 | 0.00 | 93 | 1017.3 | |
| 20260901101022 | 71 | 0.0 | 0.0 | 0.00 | 0.00 | 0.00 | 93 | 1017.2 | |
| 20260901100017 | 71 | 0.0 | 0.0 | 0.00 | 0.00 | 0.00 | 93 | 1017.2 | |
| 20260901095037 | 71 | 0.0 | 0.0 | 0.00 | 0.00 | 0.00 | 93 | 1017.1 | |
| 20260901094022 | 71 | 0.0 | 0.0 | 0.00 | 0.00 | 0.00 | 93 | 1017.1 | |
| 20260901093022 | 70 | 0.0 | 0.0 | 0.00 | 0.00 | 0.00 | 93 | 1017.1 | |
| 20260901092023 | 70 | 0.0 | 0.0 | 0.00 | 0.00 | 0.00 | 93 | 1017.0 | |
| 20260901091022 | 70 | 0.0 | 0.0 | 0.00 | 0.00 | 0.00 | 92 | 1016.9 | |
| 20260901090022 | 70 | 0.0 | 0.0 | 0.00 | 0.00 | 0.00 | 92 | 1016.8 | |
| 20260901085017 | 70 | 0.0 | 0.0 | 0.00 | 0.00 | 0.00 | 92 | 1016.8 | |
| 20260901084022 | 70 | 0.0 | 0.0 | 0.00 | 0.00 | 0.00 | 92 | 1016.7 | |
| 20260901083022 | 70 | 0.0 | 0.0 | 0.00 | 0.00 | 0.00 | 91 | 1016.7 | |
| 20260901082022 | 71 | 0.0 | 0.0 | 0.00 | 0.00 | 0.00 | 92 | 1016.7 | |
| 20260901081022 | 71 | 0.0 | 0.0 | 0.00 | 0.00 | 0.00 | 92 | 1016.6 | |
| 20260901080022 | 71 | 0.0 | 0.0 | 0.00 | 0.00 | 0.00 | 92 | 1016.6 | |
| 20260901075023 | 71 | 0.0 | 0.0 | 0.00 | 0.00 | 0.00 | 92 | 1016.6 | |
| 20260901074017 | 71 | 0.0 | 0.0 | 0.00 | 0.00 | 0.00 | 91 | 1016.6 | |
| 20260901073022 | 72 | 0.0 | 0.0 | 0.00 | 0.00 | 0.00 | 90 | 1016.5 | |
| 20260901072022 | 72 | 0.0 | 0.0 | 0.00 | 0.00 | 0.00 | 91 | 1016.5 | |
| 20260901071023 | 72 | 0.0 | 0.0 | 0.00 | 0.00 | 0.00 | 91 | 1016.4 | |
| 20260901070022 | 73 | 0.0 | 0.0 | 0.00 | 0.00 | 0.00 | 91 | 1016.4 | |
| 20260901065022 | 73 | 0.0 | 0.0 | 0.00 | 0.00 | 0.00 | 91 | 1016.4 | |
| 20260901064037 | 73 | 0.0 | 0.0 | 0.00 | 0.00 | 0.00 | 90 | 1016.4 | |
| 20260901063020 | 73 | 0.0 | 0.0 | 0.00 | 0.00 | 0.00 | 91 | 1016.5 | |
| 20260901062023 | 73 | 0.0 | 0.0 | 0.00 | 0.00 | 0.00 | 91 | 1016.5 | |
| 20260901061022 | 73 | 0.0 | 0.0 | 0.00 | 0.00 | 0.00 | 90 | 1016.4 | |
| 20260901060042 | 73 | 0.0 | 0.0 | 0.00 | 0.00 | 0.00 | 90 | 1016.4 | |
| 20260901055022 | 74 | 0.0 | 0.0 | 0.00 | 0.00 | 0.00 | 89 | 1016.4 | |
| 20260901054103 | 75 | 0.0 | 0.0 | 0.00 | 0.00 | 0.00 | 88 | 1016.4 | |
| 20260901053017 | 75 | 0.0 | 0.0 | 0.00 | 0.00 | 0.00 | 88 | 1016.4 | |
| 20260901052022 | 75 | 0.0 | 0.0 | 0.00 | 0.00 | 0.00 | 87 | 1016.5 | |
| 20260901051102 | 76 | 0.0 | 0.0 | 0.00 | 0.00 | 0.00 | 85 | 1016.5 | |
| 20260901050022 | 77 | 0.0 | 0.0 | 0.00 | 0.00 | 0.00 | 84 | 1016.5 | |
| 20260901045021 | 77 | 0.0 | 0.9 | 0.00 | 0.00 | 0.00 | 84 | 1016.4 | |
| 20260901044021 | 76 | 0.0 | 0.0 | 0.00 | 0.00 | 0.00 | 85 | 1016.4 | |
| 20260901043021 | 76 | 0.0 | 0.0 | 0.00 | 0.00 | 0.00 | 85 | 1016.4 | |
| 20260901042022 | 76 | 0.0 | 0.0 | 0.00 | 0.00 | 0.00 | 85 | 1016.3 | |
| 20260901041021 | 77 | 0.0 | 0.0 | 0.00 | 0.00 | 0.00 | 85 | 1016.3 | |
| 20260901040041 | 77 | 0.0 | 0.0 | 0.00 | 0.00 | 0.00 | 84 | 1016.4 | |
| 20260901035016 | 77 | 0.0 | 0.0 | 0.00 | 0.00 | 0.00 | 84 | 1016.4 |